Regional Weather Roundup
Issued by NWS

Home | Current Version | Previous Version | Text Only | Print | Product List | Glossary Off
Versions: 1 2 3 4 5 6 7 8 9 10 11 12 13 14 15 16 17 18 19 20 21 22 23 24 25 26 27 28 29 30 31 32 33 34 35 36 37 38 39 40 41 42 43 44 45 46 47 48 49 50

000
ASUS43 KLMK 261310
RWRKY
KENTUCKY REGIONAL WEATHER ROUNDUP
NATIONAL WEATHER SERVICE LOUISVILLE KY
900 AM EDT SUN MAR 26 2017

NOTE "FAIR" INDICATES FEW OR NO CLOUDS BELOW 12,000 FEET
WITH NO SIGNIFICANT WEATHER AND/OR OBSTRUCTIONS TO VISIBILITY.

KYZ001>023-026-027-061>063-070>075-261400-
WESTERN AND SOUTH CENTRAL KENTUCKY

CITY           SKY/WX    TMP DP  RH WIND       PRES   REMARKS
PADUCAH        CLOUDY    57  54  89 SW7       29.92R
HENDERSON      CLOUDY    55  52  88 S8        29.93R
OWENSBORO      CLOUDY    57  56  96 S9        29.95R
HOPKINSVILLE   CLOUDY    60  57  91 S10       29.96R
BOWLING GREEN  CLOUDY    60  56  86 S9        29.99R
GLASGOW        CLOUDY   N/A N/A N/A S6        30.00R
$$

KYZ024-025-028>034-038-045-046-053-261400-
NORTH CENTRAL KENTUCKY

CITY           SKY/WX    TMP DP  RH WIND       PRES   REMARKS
LOUISVILLE/SDF LGT RAIN  58  55  90 SE7       29.97S FOG
LOUISVILLE/LOU LGT RAIN  58  56  93 SE3       29.98R
FORT KNOX      CLOUDY    57  57 100 S8        29.96R
$$

KYZ035>037-039>044-047>052-055>060-089>105-261400-
NORTHEAST KENTUCKY

CITY           SKY/WX    TMP DP  RH WIND       PRES   REMARKS
LEXINGTON      LGT RAIN  57  55  93 SE8       30.02R FOG
COVINGTON      CLOUDY    56  55  97 S8        29.99R
FRANKFORT      LGT RAIN  57  54  89 VRB7      29.99R
$$

KYZ054-064>069-076>088-106>120-261400-
SOUTHEAST KENTUCKY

CITY           SKY/WX    TMP DP  RH WIND       PRES   REMARKS
JACKSON        LGT RAIN  56  53  90 S3        30.06R
LONDON         MOSUNNY   58  54  86 CALM      30.05R
SOMERSET       CLOUDY    57  57 100 S3        30.05R
MIDDLESBORO    CLOUDY    58  56  93 CALM      30.09R
MONTICELLO     CLOUDY    59  56  89 VRB7      30.04R
$$




USA.gov is the U.S. government's official web portal to all federal, state and local government web resources and services.